Location: Unspecified
(48.5670°N, 0.0000°E)
Time: 22:36:17
(UTC+00:00)

Vanguard 2 Rocket - Pass Details

Date: 26 August 2019
Orbit: 554 x 3326 km, 32.9° (Epoch: 21 September)

Event Time Altitude Azimuth Distance (km) Brightness Sun altitude
Rises 04:23:11 0° 252° (WSW) 5,231 - -7.8°
Exits shadow 04:25:46 - 247° (WSW) 4,675 9.8 -7.4°
Reaches altitude 10° 04:26:20 10° 245° (WSW) 4,563 9.8 -7.3°
Maximum altitude 04:39:04 45° 179° (S) 3,528 9.7 -5.4°
Drops below altitude 10° 04:57:00 10° 116° (ESE) 6,278 11.9 -2.6°
Sets 05:02:17 0° 111° (ESE) 7,295 12.4 -1.8°
